Lapse_Rate
5.8 5.9 5.9 5.9 5.9 5.9 6.0 6.0 6.1 6.1 6.2 6.3 6.3 6.3 6.3 6.3 6.3 6.2 6.1 6.3 6.5 6.5 6.5 6.3 6.1 6.1 5.9 6.0 6.6 5.9 6.2 6.4 6.6 6.8 6.7 6.4 6.3 6.3 6.3 6.3 6.1 6.1 6.5 6.8 7.1 7.2 7.5
6.0 6.0 6.1 6.1 6.1 6.1 6.1 6.1 6.1 6.1 6.1 6.1 6.2 6.3 6.3 6.3 6.2 6.3 6.2 6.1 5.9 6.1 6.2 6.3 6.3 6.2 6.1 6.0 6.5 6.0 5.8 6.1 6.2 6.4 6.6 6.4 6.4 6.2 6.3 6.2 6.2 6.1 6.3 6.5 6.9 7.0 7.3
5.9 6.0 6.1 6.1 6.1 6.1 6.0 6.1 6.1 6.1 6.1 6.1 6.2 6.2 6.3 6.4 6.4 6.3 6.3 6.4 6.4 6.0 5.8 5.8 6.0 6.1 6.2 6.5 5.9 6.4 5.9 5.8 5.9 6.0 6.1 6.1 6.1 6.2 6.2 6.4 6.0 6.1 5.9 6.4 6.8 7.0 7.1
5.8 5.8 5.8 5.9 5.9 6.0 6.0 6.0 6.0 6.2 6.1 6.0 6.0 6.2 6.4 6.4 6.5 6.6 6.6 6.6 6.5 6.4 6.2 5.7 5.7 5.8 6.3 6.3 6.2 6.3 5.8 6.0 5.4 5.5 5.7 5.9 5.7 5.9 5.9 6.0 6.1 5.9 5.9 6.0 6.6 6.7 6.8
6.0 6.0 6.0 6.0 6.0 5.9 5.8 5.8 5.9 5.9 5.7 5.7 5.9 6.0 6.2 6.3 6.4 6.5 6.5 6.5 6.3 6.3 6.3 6.2 5.8 5.6 6.0 6.0 6.1 6.2 6.2 6.1 5.7 5.5 5.3 5.5 5.6 5.4 5.6 5.4 5.5 5.6 5.6 5.9 6.2 6.6 6.4
6.3 6.1 6.0 5.8 5.8 5.8 5.6 5.6 5.6 5.6 5.6 5.7 5.9 6.1 6.2 6.1 5.8 5.8 6.0 6.3 6.4 6.3 6.2 6.0 6.0 5.8 5.4 5.4 5.5 6.1 6.3 6.2 6.0 5.5 5.4 5.5 5.4 5.3 5.2 5.3 5.2 5.4 5.1 5.3 5.5 6.3 6.4
6.3 6.1 6.0 5.8 5.7 5.6 5.6 5.6 5.7 5.7 5.7 5.8 6.0 6.1 6.0 5.6 5.4 5.6 6.3 6.4 6.3 6.4 6.6 6.4 6.0 6.4 5.4 5.4 5.3 5.5 6.0 6.1 6.0 5.9 5.4 5.4 5.2 5.2 6.0 5.8 6.1 5.7 5.4 5.4 6.0 6.3 6.2
6.2 6.1 6.0 5.9 5.8 5.8 5.7 5.6 5.7 5.7 5.8 5.9 6.0 6.1 5.8 5.1 5.3 5.6 6.0 6.2 6.2 6.2 7.6 7.6 6.6 6.4 6.4 5.1 5.1 5.2 5.7 5.9 5.9 5.9 5.8 5.3 5.1 5.7 6.1 5.8 5.6 5.5 5.2 5.2 5.5 5.6 5.9
6.3 6.2 6.0 5.9 5.8 5.8 5.8 5.8 5.7 5.8 5.8 6.0 6.1 6.1 5.8 5.0 5.2 5.4 6.0 5.8 5.9 6.0 6.0 7.1 6.4 6.4 6.3 5.6 5.4 5.4 5.6 5.8 5.9 5.8 5.8 5.6 6.2 6.1 5.7 5.6 5.3 5.0 4.9 4.9 5.1 5.3 5.5
6.1 6.1 6.0 6.0 5.9 6.0 6.0 5.9 5.8 5.9 5.9 6.1 6.2 6.0 5.8 5.3 5.3 5.5 5.8 5.5 5.5 5.5 5.2 6.2 5.9 5.4 5.7 5.4 5.3 6.3 5.6 5.8 5.4 6.0 5.8 5.7 5.8 5.6 5.3 5.4 5.5 4.8 5.2 5.2 5.0 4.9 5.2
6.4 6.3 6.2 6.2 6.1 6.1 6.1 5.9 5.9 6.0 6.0 6.0 6.0 5.9 5.5 5.3 5.4 5.8 5.6 5.4 5.5 5.3 5.1 6.8 6.7 6.1 6.0 5.6 5.2 5.8 6.4 6.0 5.6 5.6 5.6 6.0 5.9 5.7 5.3 5.2 5.3 5.1 5.3 5.2 5.5 5.3 5.4
6.5 6.4 6.3 6.3 6.3 6.2 6.1 6.0 6.0 6.0 6.0 6.0 5.8 5.8 5.5 5.5 5.2 5.5 5.6 5.3 5.7 5.4 5.2 7.3 6.8 6.8 6.6 6.3 6.0 5.8 6.3 6.1 5.6 5.6 5.5 5.7 5.4 5.6 5.5 5.6 5.7 5.6 5.6 5.7 5.6 5.6 6.0
6.5 6.4 6.4 6.3 6.3 6.4 6.3 6.1 6.0 6.1 6.0 6.0 5.8 5.7 5.4 5.5 5.5 5.5 5.6 5.3 5.5 5.2 6.6 7.4 7.2 7.3 7.5 7.0 6.3 5.9 6.3 6.3 5.9 5.7 5.6 5.8 5.2 5.1 5.4 5.2 5.4 5.6 5.7 5.9 6.0 5.7 5.4
6.5 6.4 6.4 6.3 6.3 6.3 6.2 6.1 6.1 6.1 6.0 5.9 5.7 5.7 5.6 5.5 5.4 5.5 5.6 5.2 5.5 6.0 6.5 7.5 7.6 8.0 8.3 8.0 7.1 6.7 6.3 6.4 6.4 6.4 6.5 6.1 6.2 5.9 5.9 5.3 5.6 5.6 6.0 6.5 6.0 6.5 6.2
6.6 6.5 6.4 6.3 6.3 6.3 6.3 6.1 6.0 6.0 5.9 5.9 5.6 5.5 5.5 5.4 5.5 5.4 5.5 5.3 6.0 6.1 6.5 7.3 8.0 7.8 8.3 8.0 7.4 7.3 7.2 6.8 6.7 6.7 6.6 6.8 6.4 6.4 6.3 6.5 6.3 6.2 6.4 5.7 6.6 6.9 6.4
6.5 6.5 6.4 6.3 6.3 6.3 6.3 6.2 6.1 6.0 5.9 5.9 5.7 5.6 5.5 5.4 5.3 5.3 5.4 5.6 6.0 6.2 6.4 6.8 6.8 7.3 7.3 7.8 7.5 7.7 7.3 7.0 6.9 6.7 6.6 6.4 6.2 6.3 6.3 6.8 6.6 6.6 6.4 6.6 6.9 6.8 7.0
6.5 6.4 6.4 6.3 6.2 6.2 6.2 6.2 6.2 6.0 5.9 5.7 5.6 5.6 5.5 5.4 5.3 5.2 5.1 5.6 6.0 6.2 6.1 6.3 6.9 6.9 7.2 7.4 7.7 7.3 7.5 7.2 6.8 7.0 6.9 6.5 6.5 6.3 6.7 6.3 6.5 6.5 6.5 6.8 6.7 6.8 7.2
6.4 6.4 6.3 6.2 6.2 6.1 6.1 6.1 6.1 6.1 6.0 5.7 5.4 5.3 5.4 5.2 4.8 4.3 4.9 5.2 5.6 6.2 6.1 6.0 6.4 6.7 6.9 7.2 7.3 7.2 7.3 7.5 6.9 7.1 6.9 6.9 6.6 6.1 6.1 6.3 6.7 6.5 6.7 6.9 7.4 6.8 6.8
6.3 6.3 6.2 6.1 6.1 6.0 5.9 6.0 6.0 6.0 6.0 6.0 5.6 5.3 5.3 5.0 4.9 4.5 4.5 5.1 5.3 6.1 6.3 6.1 6.4 6.8 6.8 6.7 6.8 7.0 7.1 7.4 6.9 6.8 6.8 6.6 6.6 6.5 6.5 6.5 6.6 6.5 6.3 6.4 7.0 6.8 7.0
6.2 6.2 6.1 6.0 6.0 5.9 5.8 5.9 5.9 5.8 5.8 5.8 5.8 5.1 5.1 5.0 4.9 4.8 4.8 5.4 5.6 5.4 5.8 6.1 6.3 6.8 6.9 6.6 7.0 6.6 7.2 7.2 7.3 7.1 6.7 6.4 6.6 6.9 6.8 6.7 6.6 6.7 6.8 6.7 6.7 6.6 6.5
6.0 6.1 6.0 5.9 5.7 5.8 5.8 5.7 5.8 5.7 5.7 5.6 5.6 5.4 5.1 5.3 4.9 4.8 4.5 4.8 5.3 5.0 5.5 5.6 5.7 6.2 6.5 6.3 6.6 7.1 6.8 6.9 7.5 7.1 6.9 6.8 6.9 7.3 7.3 6.6 7.0 6.9 6.8 6.8 6.4 5.7 5.9
6.0 5.9 5.9 5.9 5.8 5.7 5.7 5.6 5.6 5.7 5.5 5.4 5.3 5.4 5.2 5.4 5.2 5.1 4.8 4.9 4.7 4.9 4.3 5.5 5.3 5.6 5.9 6.1 6.3 6.3 6.3 6.5 6.5 7.1 7.1 7.0 6.7 7.1 7.1 7.2 7.0 6.8 6.7 6.6 6.9 6.5 6.1
5.8 5.8 5.8 5.7 5.7 5.6 5.6 5.6 5.5 5.6 5.5 5.3 5.3 5.3 5.5 5.2 5.3 5.0 5.0 4.7 4.5 4.2 5.2 5.0 5.1 5.1 5.7 5.9 5.7 6.1 6.0 6.4 6.3 6.6 6.9 7.0 7.1 7.1 6.9 7.2 7.3 7.3 7.4 7.2 7.1 7.1 6.9
5.7 5.7 5.7 5.6 5.6 5.6 5.5 5.5 5.5 5.5 5.5 5.3 5.0 5.0 5.2 5.4 5.4 5.1 4.9 4.6 4.8 4.8 4.1 5.5 5.4 5.1 5.5 5.3 5.5 6.1 6.5 6.6 6.8 6.8 6.8 6.8 7.0 6.9 7.1 7.2 7.3 7.5 7.6 7.7 7.6 7.7 8.0
5.6 5.6 5.6 5.6 5.6 5.5 5.5 5.4 5.4 5.4 5.4 5.3 4.9 4.7 4.8 5.1 5.2 5.5 4.9 4.7 5.0 5.0 4.9 5.1 5.8 5.3 5.3 5.5 5.4 5.5 6.2 6.6 7.5 7.7 7.9 7.9 7.3 6.6 7.1 7.4 7.6 7.7 7.4 7.5 7.7 7.9 8.0
5.5 5.5 5.5 5.5 5.6 5.6 5.5 5.4 5.3 5.2 5.1 5.2 5.2 4.7 4.6 4.9 5.7 5.2 5.2 4.8 4.6 4.8 5.5 5.5 5.5 5.4 5.2 5.0 5.3 5.5 6.0 7.0 7.1 7.4 7.7 7.9 7.0 6.7 7.0 7.1 7.3 7.4 8.1 8.0 8.0 7.5 7.8
5.4 5.4 5.5 5.4 5.5 5.5 5.4 5.4 5.4 5.2 5.0 5.0 5.0 4.4 4.2 4.8 5.8 5.1 5.1 4.6 4.7 4.6 4.4 4.8 5.3 6.2 5.7 5.7 5.3 5.5 6.0 6.8 7.0 7.3 7.5 7.2 6.8 6.9 6.9 7.1 7.0 7.3 7.7 7.5 7.7 7.7 8.5
5.4 5.3 5.4 5.4 5.4 5.3 5.2 5.2 5.3 5.2 5.0 4.9 5.0 4.6 4.1 4.0 5.7 5.4 5.0 4.8 4.6 4.6 4.1 4.4 4.6 5.1 5.6 5.5 5.7 6.1 6.1 7.0 6.9 7.1 7.1 7.2 7.3 7.2 7.2 7.2 7.2 7.7 7.2 7.3 8.3 7.9 7.5
5.3 5.2 5.3 5.3 5.4 5.4 5.3 5.2 5.3 5.2 5.0 4.9 5.1 4.5 4.2 3.9 5.2 5.5 5.0 4.8 5.0 4.5 4.3 4.6 4.8 5.6 5.3 5.7 5.7 5.1 5.6 6.4 7.1 6.7 7.2 7.2 7.7 7.5 7.4 7.6 7.5 7.3 7.5 7.5 7.6 7.9 7.6
Wind_Speed
12 12 12 11 12 14 15 15 15 15 15 15 16 17 18 19 20 21 22 22 20 19 21 20 20 18 7 2 8 2 15 18 9 6 7 3 3 4 5 4 1 5 4 5 9 5 4
10 10 9 11 12 13 14 14 14 15 15 14 15 16 18 19 20 21 21 23 23 21 20 20 17 15 2 8 5 8 16 12 7 7 6 3 2 3 2 4 5 2 4 8 5 6 4
9 9 11 10 11 12 14 14 14 15 16 15 16 17 18 19 20 21 23 23 22 23 21 18 16 8 9 17 12 18 17 6 6 6 5 2 2 0 2 2 3 2 6 8 10 5 6
6 7 9 9 10 11 12 12 13 14 15 16 18 19 20 22 22 23 24 25 26 25 23 18 13 3 9 7 12 14 12 10 10 10 11 5 3 2 3 3 1 4 2 9 3 12 7
8 7 8 8 10 11 11 12 13 14 15 16 18 19 21 22 24 25 27 28 32 27 17 12 3 1 11 9 6 9 9 6 3 6 8 4 2 4 4 4 4 6 10 9 6 10 3
7 7 8 10 11 11 11 12 13 15 15 15 16 17 19 20 22 25 28 33 25 7 3 3 3 4 6 3 5 10 4 6 4 6 5 6 6 6 5 10 16 13 7 7 8 2 6
7 8 9 10 11 12 12 13 13 14 16 16 16 17 17 19 23 25 20 5 5 3 6 6 7 10 10 7 7 3 4 2 4 5 12 8 7 17 25 20 12 6 12 13 5 6 3
7 8 8 9 11 11 12 13 13 15 16 15 16 17 19 21 23 19 5 4 4 8 12 11 19 23 23 11 8 8 3 7 7 12 9 9 21 22 12 15 14 16 13 9 3 6 2
7 7 8 9 10 11 12 13 16 15 14 14 14 18 19 21 23 3 6 4 13 11 6 8 11 12 14 13 11 15 3 4 6 10 17 21 27 13 14 15 15 18 21 18 13 4 7
9 8 9 9 9 10 10 14 16 16 14 16 15 17 16 21 4 5 2 10 16 4 4 7 4 5 3 4 8 14 12 7 7 13 13 12 19 16 19 20 18 22 16 14 12 7 10
9 9 9 9 9 9 10 13 15 16 16 16 16 16 14 11 4 5 5 17 12 1 5 3 2 2 5 10 8 2 6 9 16 4 5 10 6 17 21 17 17 13 6 12 13 15 12
8 10 10 9 10 10 9 12 15 16 16 17 19 15 17 2 2 8 13 12 1 2 5 6 2 1 2 10 6 5 5 6 7 12 10 14 2 4 16 18 11 8 7 7 14 11 14
8 7 8 10 10 10 9 11 14 16 17 18 18 18 13 3 3 3 6 3 3 2 4 6 9 10 5 4 4 5 3 9 10 8 13 21 21 12 10 5 16 12 10 7 8 8 14
8 9 9 9 11 10 10 13 14 16 18 19 20 18 5 4 1 3 1 3 2 3 5 10 9 19 5 13 4 3 3 5 12 3 5 12 11 17 12 16 10 22 20 9 14 14 17
8 8 9 10 11 11 11 12 15 16 17 19 14 3 3 2 3 5 2 2 5 5 3 9 13 8 6 11 7 2 6 3 5 12 8 5 11 6 9 17 17 13 19 25 16 9 8
8 9 8 10 8 12 10 13 14 14 16 19 2 2 3 4 11 3 2 3 4 4 7 6 6 2 10 12 8 10 5 4 7 5 6 8 15 16 10 12 21 22 15 13 13 20 25
8 8 8 10 11 11 11 12 13 15 15 9 2 2 4 9 2 0 2 5 5 9 10 5 3 6 5 8 3 7 3 7 4 6 9 6 8 6 10 15 17 12 17 16 9 15 17
7 8 8 9 9 9 10 12 15 16 9 6 1 2 2 2 2 2 2 4 6 9 5 6 6 9 11 9 6 5 5 4 8 4 7 6 5 11 17 18 12 11 15 22 15 23 16
8 8 8 9 9 9 11 16 15 11 4 3 2 2 2 2 2 1 4 5 5 5 6 4 5 5 4 5 6 5 5 5 8 5 3 9 3 7 8 11 14 11 15 16 18 19 23
10 8 9 9 9 9 10 14 15 8 5 4 2 2 3 3 2 2 6 5 5 5 9 5 5 9 12 13 12 9 9 7 10 16 10 9 4 5 8 6 3 7 12 8 11 8 21
11 9 9 8 9 10 10 12 12 8 1 3 2 1 2 2 2 2 4 4 9 6 6 8 3 5 9 5 9 10 7 6 6 9 5 10 7 9 12 15 16 10 14 15 11 13 6
10 9 8 8 8 8 9 11 7 7 3 2 2 1 0 3 6 4 1 3 11 8 4 11 5 11 14 8 12 19 10 7 7 5 3 6 4 2 4 13 14 15 12 14 20 16 13
10 10 10 8 8 9 9 9 6 3 3 2 1 1 1 4 1 1 3 4 3 8 8 8 13 16 16 18 12 15 16 15 16 13 6 5 4 3 13 10 11 10 18 19 14 9 8
12 12 10 9 10 7 8 8 6 3 7 2 2 2 1 4 4 5 5 11 17 17 17 21 17 16 7 15 18 16 19 21 21 20 16 13 13 7 10 8 11 11 10 18 21 18 19
14 13 12 10 10 7 9 9 8 7 7 2 2 2 2 4 7 12 15 12 11 14 15 18 21 16 11 14 5 5 3 4 12 22 21 24 16 8 7 11 13 17 7 13 16 22 18
14 13 13 12 11 9 11 9 10 8 6 3 2 3 2 4 6 13 5 5 10 11 8 5 7 13 6 4 4 4 4 4 5 3 5 15 16 10 7 10 11 16 17 21 16 15 17
13 14 14 13 13 11 12 11 8 11 11 5 2 6 2 4 8 12 8 6 2 5 6 9 7 7 6 3 4 6 7 4 6 6 3 4 6 15 13 12 9 16 14 3 8 14 21
14 14 13 12 14 14 13 13 12 10 11 9 2 13 4 4 11 13 11 11 10 7 8 6 7 3 2 4 4 3 4 3 5 6 8 11 6 7 9 10 14 18 5 14 15 18 19
15 14 14 14 12 14 15 14 13 12 11 12 2 6 9 6 8 11 13 15 19 20 9 6 6 6 3 3 2 3 8 5 10 5 4 5 8 5 6 7 13 7 12 10 12 13 17
Wind_Direction
13 8 13 17 14 12 8 6 4 1 358 2 2 359 357 353 350 349 344 342 336 331 330 331 330 336 342 288 245 252 20 4 10 10 29 30 192 163 198 200 196 226 248 207 249 253 234
16 10 11 18 12 7 5 1 358 359 354 1 360 358 356 353 348 345 342 337 333 326 324 321 323 330 274 262 275 331 347 334 345 6 341 349 56 323 217 247 197 194 242 263 267 258 258
10 5 7 11 6 2 1 358 2 4 3 358 356 356 356 353 348 343 337 332 323 316 311 310 312 314 262 254 295 304 317 291 289 270 289 253 291 12 344 198 256 254 274 278 240 211 242
355 355 1 11 3 355 352 357 359 1 0 358 355 353 349 346 344 340 334 326 315 305 302 300 308 311 261 265 288 292 279 278 252 234 228 249 266 213 204 281 247 228 192 247 238 203 224
8 4 358 6 358 353 350 358 4 0 356 351 345 344 341 339 338 336 332 321 305 302 297 291 302 201 268 298 275 277 223 249 259 191 202 231 237 235 164 203 236 218 235 230 259 195 157
2 3 0 1 355 350 353 4 4 359 352 345 345 344 338 339 337 334 329 313 306 315 317 210 237 305 260 300 320 297 262 226 221 200 203 186 183 195 194 187 219 224 221 226 230 149 210
10 355 353 357 354 354 357 356 358 353 348 345 345 342 343 343 338 334 328 337 11 345 11 278 251 251 295 334 319 257 298 213 194 199 198 181 191 208 208 210 220 235 232 223 195 249 266
-0 348 348 352 347 353 353 350 348 345 344 343 344 347 344 339 336 339 6 26 38 313 298 244 252 255 256 284 298 278 269 198 183 208 195 184 222 218 212 209 217 234 245 242 280 261 259
353 351 346 341 349 353 351 352 343 339 338 336 345 343 341 338 329 37 334 4 330 345 271 305 242 254 244 210 233 263 237 218 202 204 206 210 225 211 206 211 211 225 234 239 244 290 272
344 339 340 339 340 347 346 349 343 340 348 345 339 336 340 340 45 331 341 336 333 337 330 281 285 281 181 203 251 235 233 243 212 221 205 235 243 234 216 220 211 233 217 234 238 238 252
352 343 335 330 329 333 334 342 344 338 338 343 335 339 340 348 292 322 296 314 320 323 343 248 245 196 181 181 311 230 224 209 232 192 185 220 237 225 231 229 206 233 213 218 224 236 247
341 335 326 332 338 334 330 340 342 338 336 331 331 334 330 35 181 247 294 307 253 86 262 313 220 309 157 228 264 325 184 233 216 239 251 252 274 313 246 231 231 229 233 262 234 233 233
326 337 341 334 319 323 325 334 339 336 334 333 330 323 315 216 256 128 353 2 38 188 303 319 338 330 319 259 245 221 232 186 195 183 223 250 255 252 279 297 220 207 202 228 223 214 237
316 334 343 347 357 351 344 332 335 335 332 332 325 320 316 238 241 220 349 61 136 262 298 313 328 308 276 290 243 213 231 235 226 255 220 226 257 223 217 218 211 213 208 218 228 236 250
333 324 328 331 335 328 327 328 335 330 331 329 331 337 334 270 164 145 102 80 210 228 292 333 343 337 360 6 351 340 233 254 225 217 238 231 234 237 208 208 199 211 216 227 250 263 286
320 324 338 339 329 334 317 336 330 331 330 334 2 355 305 332 146 122 86 243 250 241 330 332 325 16 333 345 13 15 316 64 340 34 298 260 267 263 265 214 219 217 205 216 228 241 244
301 314 318 322 326 324 340 332 326 325 327 344 40 40 336 114 125 225 219 235 267 271 272 262 306 297 296 314 306 316 294 301 235 148 325 260 244 250 268 235 226 209 225 231 248 228 236
303 305 318 324 326 322 332 321 326 331 337 49 59 56 298 291 236 215 238 321 305 272 267 267 282 265 272 284 286 281 251 255 344 259 331 353 232 250 247 258 289 266 240 226 225 233 231
287 299 305 315 313 318 311 325 331 349 88 114 67 317 322 236 272 297 331 288 257 295 276 284 279 268 310 300 315 297 279 331 40 59 25 12 285 266 262 243 252 251 245 255 244 248 243
290 286 297 305 311 314 318 330 338 10 128 89 88 20 321 15 353 32 -0 293 309 286 281 295 273 281 268 265 258 272 270 287 309 306 290 156 266 286 279 305 336 290 290 290 262 250 244
279 275 284 293 305 311 316 325 331 343 5 91 57 243 197 311 338 332 310 274 297 308 337 350 306 22 356 297 275 256 286 299 286 283 279 175 240 215 241 264 287 250 266 276 268 283 260
270 286 269 287 295 301 303 318 322 331 138 93 144 130 12 268 277 246 241 251 287 304 343 310 273 328 331 292 295 301 317 297 268 314 307 188 263 237 264 244 246 256 261 259 266 252 266
258 267 278 287 282 289 290 312 328 334 137 130 242 259 213 254 227 190 230 234 265 329 294 251 304 309 299 292 294 283 268 265 268 280 271 293 278 258 267 264 264 262 235 235 240 232 233
258 262 263 272 279 274 292 298 340 267 187 142 193 131 154 261 223 214 242 271 284 288 279 287 284 275 257 301 293 270 255 256 254 247 231 244 237 242 265 275 249 253 240 219 212 228 214
257 255 259 258 269 275 275 286 292 302 197 146 178 154 215 265 247 266 265 272 287 289 283 278 278 272 286 284 273 283 268 270 241 235 222 216 221 239 242 241 271 291 246 220 225 250 240
253 255 249 254 251 253 260 265 273 268 293 173 190 163 176 280 231 253 255 241 289 290 301 245 300 303 276 248 261 242 246 259 273 291 247 221 225 223 235 242 245 249 259 235 242 264 251
258 255 252 250 245 246 255 248 250 274 271 269 221 176 208 252 250 244 247 245 208 247 279 295 319 310 273 232 240 253 249 241 252 252 207 175 202 223 230 243 255 259 255 52 207 247 253
256 266 267 261 245 240 250 251 245 242 261 259 233 176 195 255 272 254 230 243 247 238 260 285 319 349 270 238 238 254 230 229 264 284 278 269 257 219 229 242 264 237 242 217 238 261 270
254 255 261 262 273 257 242 243 249 244 247 255 232 213 206 245 267 294 265 258 236 232 241 227 242 270 295 302 301 339 299 283 262 268 246 229 211 233 231 251 298 345 286 279 278 283 285